Rocky Mount, NC

10:32 PM EST on February 21, 2018 (GMT -0500)
Rocky Mount-Wilson Regional

Weather History for KRWI - January, 2013

Change the Weather History Date:

Wednesday, January 9, 2013

  Actual Average Record
Temperature  
Mean Temperature 50 °F -  
Max Temperature 68 °F 46 °F 73 °F (1965)
Min Temperature 33 °F 27 °F 8 °F (1988)
Degree Days  
Heating Degree Days 14    
Moisture  
Dew Point 40 °F    
Average Humidity 84    
Maximum Humidity 96    
Minimum Humidity 49    
Precipitation  
Precipitation 0.00 in - - ()
Sea Level Pressure  
Sea Level Pressure 30.40 in    
Wind  
Wind Speed 1 mph (WSW)    
Max Wind Speed 6 mph    
Max Gust Speed -    
Visibility 7 miles    
Events      
Averages and records for this station are not official NWS values.
T = Trace of Precipitation, MM = Missing Value Source: NWS Daily Summary

Daily Weather History Graph

Daily Weather History Graph

Search for Another Location

Airport or City:

Trip Planner

Search our weather history database for the weather conditions in past years. The results will help you decide how hot, cold, wet, or windy it might be!

Date:

Astronomy

Jan. 09, 2013 Rise Set
Actual Time 7:22 AM EST 5:15 PM EST
Civil Twilight 6:54 AM EST 5:43 PM EST
Nautical Twilight 6:22 AM EST 6:15 PM EST
Astronomical Twilight 5:51 AM EST 6:46 PM EST
Moon 4:59 AM EST (1/9) 3:15 PM EST (1/9)
Length of Visible Light 10h 49m
Length of Day
9h 53m
Waning Crescent, 6% of the Moon is Illuminated
Jan 9
Waning Crescent
Jan 11
New
Jan 18
First Quarter
Jan 26
Full
Feb 3
Last Quarter

Hourly Weather History & Observations

Time (EST) Temp. Dew Point Humidity Pressure Visibility Wind Dir Wind Speed Gust Speed Precip Events Conditions
12:53 AM 36.0 °F 34.0 °F 93% 30.40 in 6.0 mi Calm Calm - N/A   Clear
1:28 AM 35.6 °F 33.8 °F 93% 30.38 in 3.0 mi Calm Calm - N/A   Clear
1:53 AM 34.0 °F 32.0 °F 92% 30.37 in 7.0 mi Calm Calm - N/A   Clear
2:53 AM 36.0 °F 34.0 °F 93% 30.39 in 8.0 mi Calm Calm - N/A   Clear
3:53 AM 37.9 °F 35.1 °F 89% 30.41 in 8.0 mi Calm Calm - N/A   Clear
4:53 AM 37.0 °F 34.0 °F 89% 30.39 in 6.0 mi Calm Calm - N/A   Clear
5:53 AM 35.1 °F 34.0 °F 96% 30.40 in 5.0 mi Calm Calm - N/A   Clear
6:20 AM 35.6 °F 33.8 °F 93% 30.40 in 2.5 mi Calm Calm - N/A   Clear
6:28 AM 35.6 °F 33.8 °F 93% 30.40 in 4.0 mi Calm Calm - N/A   Clear
6:53 AM 36.0 °F 34.0 °F 93% 30.41 in 3.0 mi Calm Calm - N/A   Clear
7:27 AM 33.8 °F 32.0 °F 93% 30.43 in 2.5 mi Calm Calm - N/A   Clear
7:39 AM 33.8 °F 32.0 °F 93% 30.43 in 3.0 mi Calm Calm - N/A   Clear
7:47 AM 33.8 °F 32.0 °F 93% 30.43 in 1.8 mi Calm Calm - N/A   Clear
7:48 AM 33.8 °F 32.0 °F 93% 30.43 in 2.0 mi Calm Calm - N/A   Clear
7:53 AM 34.0 °F 32.0 °F 92% 30.44 in 2.5 mi Calm Calm - N/A   Clear
8:53 AM 43.0 °F 39.9 °F 89% 30.45 in 7.0 mi Calm Calm - N/A   Clear
10:53 AM 57.9 °F 45.0 °F 62% 30.43 in 10.0 mi NW 3.5 mph - N/A   Clear
11:53 AM 63.0 °F 48.9 °F 60% 30.41 in 10.0 mi West 5.8 mph - N/A   Clear
12:53 PM 66.9 °F 48.9 °F 52% 30.38 in 10.0 mi Variable 4.6 mph - N/A   Clear
2:53 PM 68.0 °F 48.0 °F 49% 30.36 in 10.0 mi SW 5.8 mph - N/A   Clear
3:53 PM 66.9 °F 48.9 °F 52% 30.37 in 10.0 mi South 3.5 mph - N/A   Clear
4:53 PM 62.1 °F 51.1 °F 67% 30.37 in 10.0 mi Calm Calm - N/A   Scattered Clouds
5:53 PM 55.9 °F 51.1 °F 84% 30.38 in 10.0 mi Calm Calm - N/A   Clear
6:53 PM 54.0 °F 48.0 °F 80% 30.37 in 10.0 mi Calm Calm - N/A   Clear
7:53 PM 54.0 °F 46.9 °F 77% 30.37 in 10.0 mi Calm Calm - N/A   Clear
8:53 PM 51.1 °F 48.0 °F 89% 30.38 in 10.0 mi Calm Calm - N/A   Clear
9:53 PM 48.9 °F 46.9 °F 93% 30.39 in 10.0 mi Calm Calm - N/A   Clear
10:53 PM 46.9 °F 45.0 °F 93% 30.41 in 7.0 mi Calm Calm - N/A   Clear
11:53 PM 48.0 °F 45.0 °F 89% 30.41 in 10.0 mi Calm Calm - N/A   Clear